Race Results for
Bicycles Plus Winter Criterium
Folsom, CA
(Event Information)
View By:
Criterium on 02/09/2013

Note: Ranking points are NOT upgrade points. An explanation of ranking points can be found here.


Men - Cat3/4 - Master - 35-99

 Place Points NameCity, StateTime USAC #BibTeam
1128.31Eric ZEIGLER   Auburn, CA00:00.0 60207  269 Victory Velo Racing
2133.02Karl WURZBACH   Fairfield, CA00:00.0 260329  268 Davis Bike Club
3137.73Aaron PATTERSON   San Jose, CA00:00.0 334718  249 Leopard-Sapporo Team
4142.44Erik CAMACHO   San Jose, CA00:00.0 303224  209 Leopard-Sapporo
5147.15Christopher ELBO   Oakland, CA00:00.0 287728  217 SquadraSF
6151.86Jason ARINNO   Elk Grove, CA00:00.0 260928  203 Kinetic Cycles
7156.57R Todd MARSHALL   Sacramento, CA00:00.0 43936  239 Davis Bike Club Race Team
8161.28Greg CHAPLA   Davis, CA00:00.0 282712  210 Davis Bike Club Race Team
9165.99Rann VALDEZ   Pleasant Hill, CA00:00.0 142965  265 Leopard/Sapporo Racing
10170.70Ben COTA   San Jose, CA00:00.0 7881  213 Leopard-Sapporo Team
11175.41John KRETSCHMANN (1 - Cat4)   Folsom, CA00:00.0 54278  236 Body Concepts
12180.12Alvaro MOSQUERA   Sacramento, CA00:00.0 236809  276 Team Bicycles Plus/Sierra Neva
13184.83John LENOACH   Lafayette, CA00:00.0 335218  237 Cushman & Wakefield
14189.54Chris KEMP   West Sacramento, CA00:00.0 18867  234 Team City Sacramento
15194.25Hussein SAFFOURI   Piedmont, CA00:00.0 41848  257 Berkeley Bicycle Club (BBC)
16198.96Rich MADER   Sacramento, CA00:00.0 222996  238 Folsom Bike/VW/Raley's
17203.67John COLLINS   Folsom, CA00:00.0 231774  211 Folsom Bike/VW/Raley's
18208.38Barton Andrew   Rocklin, CA00:00.0 357549  204 Victory Velo Racing
19213.09Ryan ODELL   Sacramento, CA00:00.0 288200  244 Davis Bike Club Race Team
20217.80Ronald JOHNSON   Sacramento, CA00:00.0 41718  231 Rio Strada
21222.51Mark FIORI   Folsom, CA00:00.0 112253  220 Folsom Bike/VW/Raley's
22227.22Jason NEARN   Fresno , CA00:00.0 367019  243 SBRacing
23231.93Phil Schmidt (2 - Cat4)   Orangevale, CA00:00.0 334806  273 -------
24236.64Damian GONZALEZ   Stockton, CA00:00.0 178252  280 Michael David Winery Cycling T
25241.35Justin Madison (3 - Cat4)   Vacaville, CA 304658  271 
26246.06Kevin Davidson (4 - Cat4)   Danville, CA00:00.0 335464  214 Cushman
27250.77Mark ROBERTSON   Oakland, CA00:00.0 237380  255 Cushman & Wakefield Racing
28255.48Brian ACORD   Sacramento, CA00:00.0 334602  200 Folsom Bike/VW/Raley's
28255.48Robert GOSS   Folsom, CA00:00.0 289041  223 Team Bicycles Plus/Sierra Neva
29260.19Brian ACORD   Sacramento, CA00:00.0 334602  200 Folsom Bike/VW/Raley's
29260.19James BLANKENSHIP   Rescue, CA00:00.0 53651  279 Victory Velo Racing
30264.90James HERZMAN   Truckee, CA00:00.0 207922  228 Hub Coffee Roasters p/b Tahoe
31269.61Dave Garcia   Dublin, CA00:00.0 161627  272 Team Bicycles Plus/Sierra Neva
32274.32Jerry SNOW (5 - Cat4)   Sacramento, CA00:00.0 207749  262 Sacramento Golden Wheelmen
33279.03Philip BLAY (6 - Cat4)   Folsom, CA00:00.0 274756  206 Folsom Bike/VW/Raley's
34283.74Sean PERKINS (7 - Cat4)   El Dorado Hills, CA00:00.0 252869  251 Folsom Bike/VW/Raley's
35288.45David ALMQUIST (8 - Cat4)   Roseville, CA00:00.0 365531  201 Team City Sacramento
36293.16Rich HUFFORD (9 - Cat4)   Granite Bay, CA00:00.0 365212  230 Victory Velo Racing
37297.87Jeff FARLEY (10 - Cat4)   Rancho Cordova, CA00:00.0 339050  219 Folsom Bike/VW/Raley's
38302.58Jeffrey WEAVER   Sacramento, CA00:00.0 290926  267 Davis Bike Club Race Team
39307.29Ryosei KANEKO   Rough And Ready, CA00:00.0 356162  232 SHO-AIR Racing team
40312.00Steve OFFERMAN   Sacramento, CA00:00.0 81992  246 Team Bicycles Plus/Sierra Neva
41316.71Adam ANDELIN (11 - Cat4)   Elk Grove, CA00:00.0 128711  202 Team Bicycles Plus/Sierra Neva
42321.42Mike MUNOZ (12 - Cat4)   Cameronpark, CA00:00.0 307140  242 Folsom Bike/VW/Raley's
43326.13Chad RICHARDS (13 - Cat4)   Antelope, CA00:00.0 305850  254 Team Bicycles Plus/Sierra Neva
44330.84Greg FALES (14 - Cat4)   Orangevale, CA00:00.0 275788  218 Team Bicycles Plus/Sierra Neva
45335.55Randy FLOYD (15 - Cat4)   Newcastle, CA00:00.0 90079  222 Body Concepts
46340.26Markham CONNOLLY   Berkeley, CA00:00.0 208359  212 Touchstone Climbing
47344.97Bill VAUGHAN (16 - Cat4)   Auburn, CA00:00.0 283140  266 Victory Velo Racing
48349.68Clinton HAMILTON (17 - Cat4)   Auburn, CA00:00.0 333284  225 Victory Velo Racing
49354.39Marc TRUCANO (18 - Cat4)   Vacaville, CA00:00.0 332694  264 Team Precision Fuji Oval
50359.10Frank SHOEMAKER (19 - Cat4)   Folsom, CA00:00.0 32519  260 leadoutracing.com
51363.81Nabil SAMAAN   Fair Oaks, CA00:00.0 177518  258 Sustainable Cycling
52368.52Ron STOFAN (20 - Cat4)   Folsom00:00.0 368443  263 Team Bicycles Plus/Sierra Neva
53373.23Daniel POLLARD (21 - Cat4)   Roseville, CA00:00.0 269166  253 Team Mad Cat
54377.94Jason KIMBALL (22 - Cat4)   Spring Lake, NC00:00.0 340764  235 Team Roger C Peace
55382.65Scott DAVIS (23 - Cat4)   Palo Alto, CA00:00.0 257793  215 QuadCycles
56387.36Matt LUCKENBACH (24 - Cat4)   El Dorado Hills, CA00:00.0 123967  283 Team Revolutions
57392.07Renzo BERNALES (25 - Cat4)   Sacramento, CA00:00.0 76203  205 Team City
58396.78Justin MORGAN   Fresno, CA00:00.0 238135  281 Stevens Bicycle Racing
59401.49Andrew HEINEMANN   Soledad, CA00:00.0 356964  227 Don Chapin Monterey Bay Racing
60406.20Darron STURGEON   Reno, NV00:00.0 286787  278 Taleo Racing
61410.91Darren ROJO (26 - Cat4)   Folsom, CA00:00.0 366161  256 Team Bicycles Plus/Sierra Neva
62415.62Sean ODOM (27 - Cat4)   Carmichael, CA00:00.0 223061  245 EAST SAC BIKES
62415.62Sean ODOM (28 - Cat4)   Carmichael, CA00:00.0 223061  245 EAST SAC BIKES
63420.33Justin HALL   El Dorado Hills, CA00:00.0 81780  224 Team Bicycles Plus/Sierra Neva
64425.04Andreas SCHULTEN   Cameron Park, CA00:00.0 248096  259 Stuzio
65429.75Gregg Lehman (29 - Cat4)   Vacaville, CA00:00.0 250959  270 Team Precision Fuji-Oval Racing
66434.46Jeff Mitchell   Folsom, CA00:00.0 101551  274 Team Bicycles Plus/Sierra Neva
67439.17Craig DOLLEY   El Dorado Hills, CA00:00.0 158073  216 Team Bicycles Plus/Sierra Neva
68443.88Jess Raphael   Napa, CA00:00.0 221460  275 Folsom Bike/VW/Raley's
69448.59Robin MCKINNEY (30 - Cat4)   Lincoln, CA00:00.0 276168  240 Victory Velo Racing
70453.30Bob DELP   Folsom, CA00:00.0 9138  284 Folsom Bike/Mercedes Benz
71458.01Paul HIGLEY (31 - Cat4)   Redding, CA00:00.0 324504  229 Folsom Bike/VW/Raley's
72462.72George MEILAHN   Antioch, CA00:00.0 166581  241 Pedali Alpini
73467.43Patrick PETERS (32 - Cat4)   Davis, CA00:00.0 303960  252 
75476.85Mckay FLORENCE (33 - Cat4)   Loomis, CA00:00.0 304916  221 VICTORY VELO RACING
76481.56Mark SNEED (34 - Cat4)   Oakland, CA00:00.0 290626  261 Major Motion Cycling Team
DNPTony BOODY (Cat4)   El Dorado Hills, CA00:00.0 326730  207 Team Revolutions
DNPBrian PANTIGA (Cat4)   Folsom, CA00:00.0 61633  248 Bicycle Planet
DNPKevin HARRIS (Cat4)   El Dorado Hills, CA00:00.0 365218  226 Folsom Bike/VW/Raley's
DNPChris PAYNE   Reno, NV00:00.0 27493  250 Hub Coffee Roasters p/b Tahoe
DNPKevin KEADY (Cat4)   Folsom, CA00:00.0 330800  233 Folsom Bike/VW/Raley's
DNPGordon OLSON   Reno, NV00:00.0 105151  247 Hub Coffee Roasters p/b TCR
DNPTrevor CADOGAN (Cat4)   Roseville, CA00:00.0 284507  208 Rio Strada Racing

Men - Cat1/2/3 - Master - 35-99

 Place Points NameCity, StateTime USAC #BibTeam
199.02Jan WEISSENBERGER   San Francisco, CA00:00.0 186678  645 Team Bicycles Plus/ZIPZ
2101.58Michael SAYERS   Fair Oaks, CA00:00.0 54591  639 Specialized masters
3104.14Michael OROURKE (1 - Cat2)   Auburn, CA00:00.0 204496  630 SAFEWAY/PureRED/Bicycles Plus
4106.70Brian CHOI (2 - Cat2)   Folsom, CA00:00.0 52849  608 Stuzio.com
5109.26Scott McKinley   Mill Valley, CA00:00.0 46815  677 
6111.82Rodney SPRADLIN (3 - Cat2)   El Dorado Hills, CA00:00.0 122266  656 Team Bicycles Plus/Sierra Neva
7114.38Jason GREFRATH (4 - Cat2)   Sacramento, CA00:00.0 281883  616 LangeTwins Winery Racing Team
8116.94Andre TENTHOREY (5 - Cat2)   Granite Bay, CA00:00.0 76561  650 Sacramento Golden Wheelmen
9119.50Jeromy COTTELL (6 - Cat2)   Redwood City, CA00:00.0 273912  610 Team Specialized Racing Master
10122.06Jeffrey GALLAND (7 - Cat2)   Paradise, CA00:00.0 127804  614 Team Bicycles Plus/ZIPZ
11124.62Ronnie LEAVITT (1 - Cat3)   Rocklin, CA00:00.0 319284  623 Victory Velo Racing
12127.18Joseph STARON (8 - Cat2)   Sacramento, CA00:00.0 132859  666 LangeTwins Winery Racing Team
13129.74Jason ARINNO (2 - Cat3)   Elk Grove, CA00:00.0 260928  602 Kinetic Cycles
14132.30Jason Brown (9 - Cat2)   Lodi, CA00:00.0 53115  753 LangeTwins Winery Racing Team
15134.86Chris ESPY (10 - Cat2)   Sacramento, CA00:00.0 61649  660 Morgan Stanley /Specialized
16137.42Patrick MCCLURG (11 - Cat2)   Citrus Heights, CA00:00.0 48984  661 Folsom Bike/Mercedes Benz
17139.98Greg TSUTAOKA (3 - Cat3)   Oakland, CA00:00.0 296665  643 LangeTwins Winery Racing Team
18142.54Dave KAUSE (12 - Cat2)   Sacramento, CA00:00.0 175157  676 
19145.10John FRITZ (13 - Cat2)   Stockton, CA00:00.0 76287  651 Michael David Winery Cycling T
20147.66John ARMER (4 - Cat3)   El Dorado Hills, CA00:00.0 93144  603 Team Bicycles Plus/Sierra Neva
21150.22Jeff WATSON (14 - Cat2)   Elk Grove, CA00:00.0 293136  664 Team Bicycles Plus/Sierra Neva
22152.78Carter Schmeck (15 - Cat2)   Auburn, CA00:00.0 31617  646 
23155.34Neil BARTLEY (16 - Cat2)   San Jose, CA00:00.0 209268  604 Team Bicycles Plus/ZIPZ
24157.90Ben ALBRACHT (17 - Cat2)   Monterey, CA00:00.0 210637  600 Team Bicycles Plus/ZIPZ
25160.46Jason SNOVEL (18 - Cat2)   Sacramento, CA00:00.0 268577  640 Folsom Bike/VW/Raley's
26163.02Steve THOMSEN (19 - Cat2)   Reno, NV00:00.0 245436  658 LangeTwins Winery p/b Great Ba
27165.58Morgan MAHANKE (5 - Cat3)   El Dorado Hills, CA00:00.0 226577  624 Team Bicycles Plus/Sierra Neva
28168.14Hussein SAFFOURI (20 - Cat2)   Piedmont, CA00:00.0 41848  636 Berkeley Bicycle Club (BBC)
29170.70Michael CLAUDIO (21 - Cat2)   West Sacramento, CA00:00.0 248052  609 Davis Bike Club Race Team
30173.26Rob CADY (22 - Cat2)   Elk Grove, CA00:00.0 49774  674 SacObgyn Cycling Team p/b Davi
31175.82Scott HERRING (23 - Cat2)   Sausalito, CA00:00.0 236346  618 Team Specialized Racing Master
32178.38Gus PLATIS (6 - Cat3)   W Sacramento, CA00:00.0 40616  633 Team City Sacramento
33180.94Robert PASCO   Belmont, CA00:00.0 136970  653 SAFEWAY/GA PRC Group/Bicycles
34183.50Dennis BAKER (24 - Cat2)   Sacramento, CA00:00.0 255279  662 Sacramento Golden Wheelmen
35186.06Steve MCCLELLAND (7 - Cat3)   Elk Grove00:00.0 360314  675 Rio Strada Racing
36188.62Ted TORIBIO (25 - Cat2)   Elk Grove00:00.0 88963  641 Folsom Bike/VW/Raley's
37191.18Josh BULLOCK (26 - Cat2)   Sacramento, CA00:00.0 153414  605 Chico Corsa
38193.74Steve GRIFFITHS (8 - Cat3)   Granite Bay, CA00:00.0 14196  617 Team Bicycles Plus/Sierra Neva
39Unknown Rider     --- 
40198.86Barton Andrew (9 - Cat3)   Rocklin, CA00:00.0 357549  648 
41201.42Gregory GAMBETTA (27 - Cat2)   Sacramento, CA00:00.0 212916  615 Folsom Bike/VW/Raley's
42203.98Erik SALANDER (10 - Cat3)   Belmont, CA00:00.0 195443  637 Peninsula Velo Racing
43206.54Anthony Martinez (28 - Cat2)   Elk Grove, CA00:00.0 22744  672 
44209.10Anthony ENG (11 - Cat3)   El Cerrito, CA00:00.0 245065  612 Team Oakland Cycling
45211.66Kalani HINES (12 - Cat3)   San Francisco, CA00:00.0 219316  659 Metromint Cycling
46214.22David NASCA (29 - Cat2)   Roseville, CA00:00.0 41192  626 Folsom Bike/VW/Raley's
47216.78Allen JACKSON (13 - Cat3)   Sonora, CA00:00.0 260263  621 Kovarus/Wells Fargo Racing Tea
48219.34Curt Mills (14 - Cat3)   Gold River, CA00:00.0 299412  654 -------
49221.90David ALBRECHT   Chico, CA00:00.0 47091  601 Team Bicyces Plus/ZIPZ
50224.46Steve WARD (15 - Cat3)   Folsom, CA00:00.0 286653  644 Team Bicycles Plus/Sierra Neva
51227.02Chris PAYNE (16 - Cat3)   Reno, NV00:00.0 27493  632 Hub Coffee Roasters p/b Tahoe
52229.58Shane CALKINS (17 - Cat3)   Gold River, CA00:00.0 254786  606 Team Bicycles Plus/Sierra Neva
53232.14Jason WALKER (30 - Cat2)   Reno, NV00:00.0 201369  655 Team Specialized Racing Master
54234.70Stephen MCCAW (31 - Cat2)   Sacramento, CA00:00.0 62322  652 Team Bicycles Plus/Sierra Neva
55237.26Alvaro MOSQUERA (18 - Cat3)   Sacramento, CA00:00.0 236809  647 Team Bicycles Plus/Sierra Neva
56239.82Jonathan EROPKIN   Fresno, CA00:00.0 197844  665 SAFEWAY/GA PRC Group/Bicycles
57242.38Jack ARNEY (19 - Cat3)   Lincoln, CA00:00.0 301427  668 Folsom Bike/Mercedes Benz
58244.94Henry RABAS (20 - Cat3)   West Sacramento, CA00:00.0 28975  657 Team Bicycles Plus/Sierra Neva
59247.50Chris PAROD (21 - Cat3)   Mather, CA00:00.0 270992  631 Team Bicycles Plus/Sierra Neva
60250.06Craig ROEMER (32 - Cat2)   Petaluma, CA00:00.0 80925  635 Team Specialized Racing Master
61252.62Jens HILLEN (33 - Cat2)   Orinda, CA00:00.0 226525  620 Team Bicycles Plus/ZIPZ
62255.18Scott PEIFER (34 - Cat2)   Granite Bay, CA00:00.0 265877  667 Folsom Bike/Mercedes Benz Elit
63257.74Daniel Bryant   Carmichael, CA00:00.0 195929  671 Folsom Bike/MercedesBenz Elit
64260.30Nick THEOBALD   Burlingame, CA00:00.0 35297  669 SAFEWAY/GA PRC Group/Bicycles
65262.86James HERZMAN (22 - Cat3)   Truckee, CA00:00.0 207922  619 Hub Coffee Roasters p/b Tahoe
66265.42Lawrence NOLAN   Fremont, CA00:00.0 26205  627 Team Specialized Racing Master
67267.98Steve SHOWLER   Carmichael, CA00:00.0 32554  649 Morgan Stanley /Specialized
DNPScotti FONSECA (Cat2)   Fair Oaks, CA00:00.0 204715  613 PrimeTime Cycling Team
DNPJoe OLIVERI (Cat2)   Grass Valley, CA00:00.0 26674  628 Team Bicycles Plus/Sierra Neva
DNPJonathan LAINE (Cat2)   Truckee, CA00:00.0 256153  622 Team Bicycles Plus/Sierra Neva
DNPErik CAMACHO (Cat2)   San Jose, CA00:00.0 303224  607 Leopard-Sapporo
DNPRich TABUSO (Cat3)   Roseville, CA00:00.0 274439  663 Team Bicycles Plus/Sierra Neva
DNPNabil SAMAAN (Cat2)   Fair Oaks, CA00:00.0 177518  638 Sustainable Cycling
DNPGordon OLSON (Cat3)   Reno, NV00:00.0 105151  629 Hub Coffee Roasters p/b TCR
DNPChristopher BAKER   Sacramento, CA00:00.0 47424  673 Morgan Stanley Cycling Team
DNPMark TRUJILLO (Cat2)   Reno00:00.0 212418  642 Hub coffee roasters p/b TCR
DNPGerald ROBERTS (Cat2)   Sacramento, CA00:00.0 30073  634 Team Bicycles Plus/Sierra Neva
DNPJudd VAN SICKLE   Sacramento, CA00:00.0 127052  670 Folsom Bike/Mercedes Benz Elit
DNPKeith DEFIEBRE (Cat2)   Prunedale, CA00:00.0 9046  611 Cycles Fanatic
DNPJeff MITCHELL (Cat3)   Folsom, CA00:00.0 101551  625 Team Bicycles Plus/Sierra Neva

Men - Cat1/2/3 - Master - 45-99

 Place Points NameCity, StateTime USAC #BibTeam
1107.48John FAIRBANKS (1 - Cat2)   Sacramento, CA00:00.0 83306  710 Folsom Bike/VW/Raley's
2111.28Michael OROURKE (2 - Cat2)   Auburn, CA00:00.0 204496  730 SAFEWAY/PureRED/Bicycles Plus
3115.08Andre TENTHOREY (3 - Cat2)   Granite Bay, CA00:00.0 76561  751 LangeTwins Winery p/b Great Ba
4118.88Gregg BETONTE (4 - Cat2)   Truckee, CA00:00.0 255414  746 GNARLUBE/LANDSHARK racing
5122.68Nabil SAMAAN (5 - Cat2)   Fair Oaks, CA00:00.0 177518  737 Sustainable Cycling
6126.48Karl WURZBACH (6 - Cat2)   Fairfield, CA00:00.0 260329  744 Davis Bike Club
7130.28Keith DEFIEBRE (7 - Cat2)   Prunedale, CA00:00.0 9046  707 Cycles Fanatic
8134.08Anthony Martinez (8 - Cat2)   Elk Grove, CA00:00.0 22744  749 
9137.88Todd DAMBLY (1 - Cat3)   Folsom, CA00:00.0 212968  706 Folsom Bike/VW/Raley's
10141.68Kashy GHAZZAGH (9 - Cat2)   Santa Rosa, CA00:00.0 295719  713 Fightin' Bobas
11145.48Wilson GORRELL (2 - Cat3)   Folsom, CA00:00.0 254622  714 Folsom Bike/VW/Raley's
12149.28R Todd MARSHALL (3 - Cat3)   Sacramento, CA00:00.0 43936  724 Davis Bike Club Race Team
13153.08Ted TORIBIO (10 - Cat2)   Elk Grove00:00.0 88963  740 Folsom Bike/VW/Raley's
14156.88David ALBRECHT   Chico, CA00:00.0 47091  700 Team Bicyces Plus/ZIPZ
15160.68Chris KEMP (4 - Cat3)   West Sacramento, CA00:00.0 18867  719 Team City Sacramento
16164.48Joe OLIVERI (11 - Cat2)   Grass Valley, CA00:00.0 26674  728 Team Bicycles Plus/Sierra Neva
17168.28Chris Morris (5 - Cat3)   El Dorado Hills, CA00:00.0 316874  ??? Folsom Bike/VW/Raley's
18172.08Kerry STOCKWELL   Folsom, CA00:00.0 34228  739 Team Bicycles Plus/Sierra Neve
19175.88Steve MCCLELLAND (6 - Cat3)   Elk Grove00:00.0 360314  750 Rio Strada Racing
20179.68Gordon ONG (7 - Cat3)   Carmichael, CA00:00.0 26762  729 Team City Sacramento
21183.48John FRITZ (12 - Cat2)   Stockton, CA00:00.0 76287  752 Michael David Winery Cycling T
22187.28Bill POWELL   El Dorado Hills, CA00:00.0 154026  756 
23191.08Gus PLATIS (8 - Cat3)   W Sacramento, CA00:00.0 40616  731 Team City Sacramento
24194.88John LENOACH (9 - Cat3)   Lafayette, CA00:00.0 335218  721 Cushman & Wakefield
25198.68Lance BARTCZAK (10 - Cat3)   Cool, CA00:00.0 353518  702 BAHATI RACING
26202.48Jonathan LAINE (13 - Cat2)   Truckee, CA00:00.0 256153  720 Team Bicycles Plus/Sierra Neva
27206.28Morgan MAHANKE (11 - Cat3)   El Dorado Hills, CA00:00.0 226577  723 Team Bicycles Plus/Sierra Neva
28210.08Anthony ENG (12 - Cat3)   El Cerrito, CA00:00.0 245065  709 Team Oakland Cycling
29213.88Steve GRIFFITHS (13 - Cat3)   Granite Bay, CA00:00.0 14196  715 Team Bicycles Plus/Sierra Neva
30217.68Scott HERRING (14 - Cat2)   Sausalito, CA00:00.0 236346  717 Team Specialized Racing Master
31221.48James BLANKENSHIP (14 - Cat3)   Rescue, CA00:00.0 53651  747 Victory Velo Racing
32UNKNOWN RIDER   00:00.0  ??? -------
33229.08Frank Lunceford Sr (15 - Cat3)   El Dorado Hills, CA00:00.0 273343  722 Folsom Bike/VW/Raley's
34232.88Mark TRUJILLO (15 - Cat2)   Reno00:00.0 212418  741 Hub coffee roasters p/b TCR
35236.68Steve WARD (16 - Cat3)   Folsom, CA00:00.0 286653  743 Team Bicycles Plus/Sierra Neva
36240.48Jc CLIFFORD (17 - Cat3)   Roseville, CA00:00.0 232661  703 Team Bicycles Plus/Sierra Neva
37244.28Jack ARNEY (18 - Cat3)   Lincoln, CA00:00.0 301427  701 Folsom Bike/VW/Raley's
38248.08Markham CONNOLLY (19 - Cat3)   Berkeley, CA00:00.0 208359  704 Touchstone Climbing
39251.88John HANCOCK (16 - Cat2)   Sacramento, CA00:00.0 195844  716 Team Bicycles Plus/Sierra Neva
40255.68Mark FIORI (20 - Cat3)   Folsom, CA00:00.0 112253  711 Folsom Bike/VW/Raley's
41259.48Gerald ROBERTS (17 - Cat2)   Sacramento, CA00:00.0 30073  733 Team Bicycles Plus/Sierra Neva
42263.28Brian HITCHMAN (18 - Cat2)   Folsom, CA00:00.0 48419  718 Team Bicycles Plus/Sierra Neva
43267.08Eric ZEIGLER (21 - Cat3)   Auburn, CA00:00.0 60207  745 Victory Velo Racing
44270.88Lance NEWEY (22 - Cat3)   Fair Oaks, CA00:00.0 202161  727 Team Bicycles Plus/Sierra Neva
45274.68Craig ROEMER (19 - Cat2)   Petaluma, CA00:00.0 80925  735 Team Specialized Racing Master
46278.48Stephen MCCAW (20 - Cat2)   Sacramento, CA00:00.0 62322  754 Team Bicycles Plus/Sierra Neva
47282.28Bob DELP (23 - Cat3)   Folsom, CA00:00.0 9138  708 Folsom Bike/VW/Raley's
48286.08Ron ROUSE (21 - Cat2)   Sacramento, CA00:00.0 166249  736 Rio Strada Racing
49289.88Steve SHOWLER   Carmichael, CA00:00.0 32554  748 Morgan Stanley /Specialized
50293.68Jess RAPHAEL (24 - Cat3)   Napa, CA00:00.0 221460  732 Folsom Bike / VW / Raley's
51297.48Vincent GEE (22 - Cat2)   Sacramento, CA00:00.0 13001  712 Team Bicycles Plus/Sierra Neva
52301.28Marty CUNNINGHAM (23 - Cat2)   Sacrament Ca00:00.0 8359  705 Sustainable Cycling
53UNKNOWN RIDER   00:00.0  ??? -------
DNPJeff MITCHELL (Cat3)   Folsom, CA00:00.0 101551  725 Team Bicycles Plus/Sierra Neva
DNPChris MORRIS (Cat3)   El Dorado Hills, CA00:00.0 316874  726 Folsom Bike/VW/Raley's
DNPAndreas SCHULTEN (Cat3)   Cameron Park, CA00:00.0 248096  738 Stuzio
DNPMark ROBERTSON (Cat3)   Oakland, CA00:00.0 237380  734 Cushman & Wakefield Racing
DNPRobert PASCO   Belmont, CA00:00.0 136970  755 SAFEWAY/GA PRC Group/Bicycles
DNPJason BROWN (Cat2)   Lodi, CA00:00.0 53115  753 LangeTwins Winery p/b Great Ba
DNPAlex VELEZ (Cat3)   El Dorado Hills , CA00:00.0 63911  742 LeadOut Racing

Men - Cat1/2/3 - Master - 55-99

 Place Points NameCity, StateTime USAC #BibTeam
1162.23Lawrence NOLAN   Fremont, CA00:00.0 26205  768 Team Specialized Racing Master
2193.39Kevin WILLITTS (1 - Cat3)   S Lake Tahoe, CA00:00.0 192774  775 Team Bicycles Plus/Sierra Neva
3224.55Bill Powell   El Dorado Hills, CA00:00.0 154026  777 -------
4255.71Tracy MUEGGE (1 - Cat2)   Gold River, CA00:00.0 51637  766 Team Bicycles Plus/Sierra Neva
5286.87Robert NAPIERALSKI (2 - Cat3)   Springville, CA00:00.0 271499  767 Sacramento Golden Wheelmen
6318.03Erik SALANDER (3 - Cat3)   Belmont, CA00:00.0 195443  773 Peninsula Velo Racing
7349.19Dave MONTGOMERY (4 - Cat3)   Olympic Valley, CA00:00.0 302935  765 Team Bicycles Plus/ Sierra Nev
8380.35Bruce OSTERMANN   Worland, WY00:00.0 210078  769 Team Tumbleweed
9411.51William OWENS (5 - Cat3)   Truckee, CA00:00.0 26982  770 Truckee Bike Team
10442.67Peter TAYLOR (6 - Cat3)   Truckee, CA00:00.0 281821  774 Truckee Bicycle Team
11473.83Mark PERRY (7 - Cat3)   Auburn, CA00:00.0 288400  771 Victory Velo Racing
12504.99Rick REYNOLDS (8 - Cat3)   Truckee, CA00:00.0 287475  772 Truckee Bike Team

Men - Cat 5

 Place Points NameCity, StateTime USAC #BibTeam
1407.69Martin SZWARC   Rancho Cordova, CA00:00.0 380700  541 Stuzio.com
2411.65Wyatt MORIN   Roseville, CA00:00.0 266930  527 Victory Velo/Placer Foothill
3415.61Richard REINHARDT   Sacramento, CA00:00.0 394292  533 
4419.57Eric Voosen   Colfax Ca00:00.0 392658  547 -------
5423.53Steven Williams   Chico00:00.0 386716  549 Chico Masters Cycling Team
6427.49Jesse REEVES   Reno00:00.0 366463  532 none
7431.45Kevin GORCHINSKI   Roseville, CA00:00.0 380099  520 Victory Velo Racing
8435.41Robb THOMPSON   Folsom00:00.0 364927  544 Norcal Hub Racing
9439.37Kenneth CURTIS   Sparks, NV00:00.0 302356  513 Reno Cycling Team
10443.33Ben Porter   Folsom, CA00:00.0 394171  531 
11447.29David WIELAND   Roseville00:00.0 397062  548 
12451.25John SCOTT   Folsom, CA00:00.0 393871  535 Bicycle Planet
13455.21Michael Helton   Reno Nevada00:00.0 391956  563 -------
14459.17Benjamin CONNOLLY   Citrus Heights, CA00:00.0 392598  510 Team City Sacramento
15463.13Nate HOE   Seattle, WA00:00.0 372578  524 Team City Sacramento
16467.09Travis TANASSE   Folsom, CA00:00.0 378079  542 Folsom Bike/VW/Raley's
17471.05Spencer Fields   Placerville, CA00:00.0 326378  996 
18475.01Troy SOARES   Auburn, CA00:00.0 129658  539 Victory Velo
19478.97David PALMERI   Live Oak, CA00:00.0 375602  530 Davis Bike Club - Race Team
20482.93Joseph HOLT   Chico, CA00:00.0 389741  525 Chico Corsa
21486.89Lee CRANE   Carlsbad00:00.0 384483  512 Swami's
22490.85Garrison TRAUD   Gold River00:00.0 392480  546 
23494.81Kass FEUERHELM   Pollock Pines, CA00:00.0 140414  518 
24498.77George COFFEY   Sacramento00:00.0 393317  509 Team Revolutions
25502.73Jared ELLISON   Folsom00:00.0 393171  516 Team Bicycles Plus/Sierra Neva
26506.69Shayne MARSHALL   Auburn, CA00:00.0 392920  526 
27510.65Patrick NORVILLE   Folsom, CA00:00.0 392707  529 Team Bicycles Plus/Sierra Neva
28514.61Brian BAXTER   Rocklin, CA00:00.0 304373  501 Team Bicycles Plus/Sierra Neva
29518.57Erik CHO   San Francisco00:00.0 331900  508 Scary Fast Racing
30522.53Dan TILZEY   Reno, NV00:00.0 35606  545 Audi
31526.49Michael HAHN   Folsom, CA00:00.0 338214  522 Team Bicycles Plus/Sierra Neva
32530.45John BURTON   San Jose, CA00:00.0 365820  505 
33534.41Thomas BRENNAN   Sacramento, CA00:00.0 377489  503 Rio Strada Racing
34538.37Robert Bryan   Reno, NV00:00.0 239579  504 Reno Cycling Team p/b Natures
35542.33Brandon SCOTT   Auburn Ca00:00.0 380744  534 
36546.29John SIMKO   El Dorado Hills, CA00:00.0 393071  538 Folsom Bike/VW/Raley's/ Folsom
37550.25Ryan Carr   Sparks, NV00:00.0 317714  506 
38554.21Richard Sullivan   Rocklin, CA00:00.0 387196  575 -------
39558.17Edwin GRANDEZ   El Dorado Hills, CA00:00.0 394522  521 Leadout
40562.13Ken Starkey   Shingle Springs, CA00:00.0 422138  995 
41566.09David Brandeberry   Folsom, CA00:00.0 4623  553 -------
42570.05Christopher FREEMAN   Rancho Cordova, CA00:00.0 380040  519 LeadoutRacing
44577.97Seth DOUGAN   Fair Oaks, CA00:00.0 394120  515 
45581.93Ryan COUCH   Folsom, CA00:00.0 384536  511 
46585.89Aaron SIEMSEN   Folsom00:00.0 377062  537 
47589.85Christopher NAMBA   Sacramento00:00.0 381934  528 Team City
48593.81Brian DEAN   Elverta Ca00:00.0 225923  514 Chico Corsa Cycling Club
DNPRon SHEVOCK   Folsom, CA00:00.0 294396  536 Folsom Bike / Giant
DNPCalvin THIGPEN   Santa Rosa Ca00:00.0 393794  543 UC Davis Cycling
DNPRon SHEVOCK   Folsom, CA00:00.0 294396  536 Folsom Bike / Giant
DNPNicholas CASTER   Roseville, CA00:00.0 394639  507 Rio Strada Racing
DNPAlex ARMANDO   El Dorado Hills, CA00:00.0 367753  500 
DNPDavid EVANS   Reno, NV00:00.0 341778  517 Velo Reno p/b Tamarack Junctio

Men - Cat 5 - Master - 35-99

 Place Points NameCity, StateTime USAC #BibTeam
1383.10Robb THOMPSON   Folsom00:00.0 364927  577 Norcal Hub Racing
2390.00Eric VOOSEN   Colfax Ca00:00.0 392658  578 Victory Velo Racing
3396.90Martin SZWARC   Rancho Cordova, CA00:00.0 380700  576 Stuzio.com
4403.80Kenneth CURTIS   Sparks, NV00:00.0 302356  559 Reno Cycling Team
5410.70Marco COSTANTINO   San Francisco00:00.0 391733  556 Cushman & Wakefield Racing
6417.60Jared ELLISON   Folsom00:00.0 393171  560 Team Bicycles Plus/Sierra Neva
7424.50Ron Shevock   Folsom, CA00:00.0 294396  536 -------
8431.40David Brandeberry   Folsom, CA00:00.0 4623  502 -------
9438.30Steven Williams   Chico00:00.0 386716  579 Chico Masters Cycling Team
10445.20Aaron SCHMITZ   El Dorado Hills, CA00:00.0 383976  567 
11452.10Michael Helton   Reno Nevada00:00.0 391956  523 -------
12459.00Greg AMPEY   Elk Grove, CA00:00.0 399829  550 Team City
13465.90Troy SOARES   Auburn, CA00:00.0 129658  571 Victory Velo
14472.80John SCOTT   Folsom, CA00:00.0 393871  568 Bicycle Planet
15479.70Patrick NORVILLE   Folsom, CA00:00.0 392707  566 Team Bicycles Plus/Sierra Neva
16486.60Mike CORCORAN   Reno, NV00:00.0 7778  555 Reno Cycling Team
17493.50Brian BAXTER   Rocklin, CA00:00.0 304373  552 Team Bicycles Plus/Sierra Neva
18500.40Lee CRANE   Carlsbad00:00.0 384483  558 Swami's
19507.30Benjamin WOODSIDE   El Dorado Hills, CA00:00.0 392654  580 Team Revolutions
20514.20John BURTON   San Jose, CA00:00.0 365820  554 
21521.10Matt Marks   Granite Bay, CA00:00.0 395910  581 SGW
22528.00Len BAKER   El Dorado Hills00:00.0 393325  551 Team Revolutions
23534.90Shayne MARSHALL   Auburn, CA00:00.0 392920  565 
24541.80Ryan JANTZEN   El Dorado Hills, CA00:00.0 393249  564 Team Revolutions
25548.70Albert FONG   Sacramento, CA00:00.0 367396  561 
26555.60Tom HATFIELD   Sacramento, CA00:00.0 369030  562 Carmichael Cycle
27562.50John SIMKO   El Dorado Hills, CA00:00.0 393071  570 Folsom Bike/VW/Raley's/ Folsom
28569.40Ryan COUCH   Folsom, CA00:00.0 384536  557 
29576.30Colby STOTT   Reno, NV00:00.0 392737  573 Reno Cycling Club/ Reno Cylcli
30583.20Richard Sullivan   Rocklin, CA00:00.0 387196  540 -------
31590.10Ryan SUAREZ   Rocklin00:00.0 380963  574 Victory Velo Auburn
DNPKen STARKEY   Cameron Oark, CA00:00.0 396003  572 

Men - Cat 4

 Place Points NameCity, StateTime USAC #BibTeam
1286.40Jake HENSLEY   El Dorado Hills Ca00:00.0 295422  422 Folsom Bike/VW/Raley's
2289.61Marc MARINO   San Francisco, CA00:00.0 315958  466 Chica Sexy
3292.82Brian BROWN   Sacramento, CA00:00.0 365111  404 Sacramento Golden Wheelmen
4296.03Rich HUFFORD   Granite Bay, CA00:00.0 365212  425 Victory Velo Racing
5299.24Andrew SHIMIZU   El Dorado Hills, CA00:00.0 366663  451 Data Driven Athlete Racing
6302.45Neilson POWLESS   Roseville, CA00:00.0 230865  469 Folsom Bike/Mercedes Benz
7305.66Cory HULA   Sacramento, CA00:00.0 334330  426 Team City Sacramento
8308.87Andrew HEINEMANN   Soledad, CA00:00.0 356964  421 Don Chapin Monterey Bay Racing
9312.08Trevor ELLSWORTH   Reno, NV00:00.0 348354  415 Bear Development Team
10315.29Cesar PEREZ   Rancho Cordova Ca00:00.0 365929  443 Rio Strada Racing
11318.50Eugene STEVENSON   Sacramento, CA00:00.0 288526  455 Team City Sacramento
12321.71Jason PETTINATO   Antelope, CA00:00.0 204403  444 CTP Racing
13324.92Robert TERRA   Lodi, CA00:00.0 269793  459 Team Bicycles Plus/Sierra Neva
14328.13Clinton HAMILTON   Auburn, CA00:00.0 333284  420 Victory Velo Racing
15331.34Tyler PLACE   El Dorado Hills, CA00:00.0 365099  445 Town Center Bike & Tri
16334.55Jeff STEIN   Weimar, CA00:00.0 295435  465 Webcor/Alto Velo
17337.76Matthew AXFORD   Carmichael, CA00:00.0 247223  401 Rio Strada Racing
18340.97Greg FALES   Orangevale, CA00:00.0 275788  416 Team Bicycles Plus/Sierra Neva
19344.18Richard NAGEL   Vacaville, CA00:00.0 345938  470 Grass Roots Racing pb Velo Wre
20347.39Zachary ISAACS   Oakland, CA00:00.0 310212  427 Middlebury College Cycling Tea
21350.60Paul LUDDEN   Sacramento, CA00:00.0 352040  432 NorCal Hub Racing
22353.81Dustin DENTON   Stockton, CA00:00.0 365130  411 Michael David Winery/ Delta Ve
23357.02Jason COVEY   San Jose 00:00.0 368412  407 Adventures Edge
24360.23Nick ROBERTI   Cameron Park 00:00.0 366620  449 Rio Strada Racing
25363.44Adam STANSBURY   Folsom, CA00:00.0 347404  454 Folsom Bike/VW/Raley's
26366.65Michael TERRA   Sacramento, CA00:00.0 365904  458 Team Revolutions
27369.86Nick SHOCKEY   Woodland, CA00:00.0 319784  452 Data Driven Athlete Racing
28373.07Trevor JOHNSTON   Citrusheights, CA00:00.0 317078  429 Rio Strada Racing
29376.28Marc TRUCANO   Vacaville, CA00:00.0 332694  467 Fuji-Oval Racing
30379.49Tim BAIR   Roseville, CA00:00.0 257805  402 Norcal Hub Racing
31382.70Darren ROJO   Folsom, CA00:00.0 366161  450 Team Bicycles Plus/Sierra Neva
32385.91Derek NOVAES   West Sacramento, CA00:00.0 274484  437 Rio Strada Racing
33389.12James DAWSON   Rocklin, CA00:00.0 365309  410 NorCal Hub Racing
34392.33Mike GIUDICELLI   Auburn, CA00:00.0 330124  418 NorCal Hub Racing
35395.54Justin MADISON   Vacaville, CA00:00.0 304658  472 Fuji-Oval Racing
36398.75Craig MARTIN   Auburn, CA00:00.0 304421  433 Rio Strada Racing
37401.96Troy STRICKLAND   San Ramon00:00.0 279824  457 Tieni Duro
38405.17Gabriel MORFORD   San Francisco, CA00:00.0 333062  435 Gigaomaropistachios
39408.38Gregg LEHMAN   Vacaville, CA00:00.0 250959  468 Fuji-Oval Racing
40411.59Connor ELLISON   Folsom, CA00:00.0 329264  414 Team Bicycles Plus/Sierra Neva
41414.80Scott KINGSTON   Sacramento, CA00:00.0 364783  430 Rio Strada Racing
42418.01Chad RICHARDS   Antelope, CA00:00.0 305850  448 Team Bicycles Plus/Sierra Neva
43421.22Scott HOOPER   Folsom, CA00:00.0 142947  424 Team Bicycles Plus/Sierra Neva
44424.43Jarrod WYRICK   Granite Bay, CA00:00.0 109262  463 NorCal Hub Racing
45427.64Adam ANDELIN   Elk Grove, CA00:00.0 128711  400 Team Bicycles Plus/Sierra Neva
46430.85Tony BOODY   El Dorado Hills, CA00:00.0 326730  403 Team Revolutions
47434.06Sef JAIMES   San Luis Obispo, CA00:00.0 332978  428 SLO NEXUS
48437.27Manny CANSON   Sparks, NV00:00.0 334646  405 Reno Cycling Team p/b Nature's
49440.48Scott DAVIS   Palo Alto, CA00:00.0 257793  409 QuadCycles
50443.69Dave SMITH   Elk Grove, CA00:00.0 237254  453 Rio Strada Racing
51446.90Matt FANFELLE   Sacramento, CA00:00.0 370596  417 
52450.11Daniel POLLARD   Roseville, CA00:00.0 269166  446 Team Mad Cat
53UNKNOWN RIDER   00:00.0  ??? -------
54456.53Nicholas LOUIS   Auburn, CA00:00.0 315558  431 Chico Corsa Cycling Club
55459.74Josef CARLSON   Eureka, CA00:00.0 348872  406 Adventures Edge
56462.95Greg PRICE   West Sacramento, CA00:00.0 364779  447 Rio Strada Racing
57466.16Joshua TIPTON   Sacramento00:00.0 374810  460 Team city Sacramento
58469.37Michael O'DELL   Folsom, CA00:00.0 231563  438 Folsom Bike
59472.58Zachary DOMAGALA   Roseville, CA00:00.0 378257  413 NorCal Hub Racing
60475.79Lonny MORGAN   Carmichael, CA00:00.0 303146  436 Team Revolutions
61479.00Craig DOLLEY   El Dorado Hills, CA00:00.0 158073  412 Team Bicycles Plus/Sierra Neva
62482.21Todd OSTERBERG   Roseville, CA00:00.0 299874  441 NorCal Hub Racing
63485.42Robert GOSS   Folsom, CA00:00.0 289041  419 Team Bicycles Plus/Sierra Neva
64488.63Sean ODOM   Carmichael, CA00:00.0 223061  440 EAST SAC BIKES
65491.84Evan CURRIE   El Dorado Hills, CA00:00.0 316094  408 Folsom bike
66495.05Ron STOFAN   Folsom00:00.0 368443  456 Team Bicycles Plus/Sierra Neva
67498.26Saul LOYOLA   Hayward, CA00:00.0 379786  464 
68501.47Aaron LOMBARDI   Elk Grove, CA00:00.0 258261  471 NorCal Hub Racing
69504.68Jasper HODGSON   Folsom, CA00:00.0 337878  423 Team Bicycles Plus/Sierra Neva
70507.89Stephen MASON   Folsom, CA00:00.0 257941  434 Los Gatos Bicycle Racing Club
DNPAnthony ODELL   Orangevale, CA00:00.0 287267  439 
DNPJeffrey WEAVER   Sacramento, CA00:00.0 290926  461 Davis Bike Club Race Team
DNPSchuyler WILCOX   Sacramento, CA00:00.0 335466  462 Rio Strada Racing
DNPBrian PANTIGA   Folsom, CA00:00.0 61633  442 Bicycle Planet

Men - Cat 3

 Place Points NameCity, StateTime USAC #BibTeam
1143.25Justin TRAUD   Gold River, CA00:00.0 368059  335 Rio Strada
2147.17Andrew BERG   Sacramento, CA00:00.0 351724  302 Sacramento Golden Wheelmen
3151.09Tyler JANKE   Folsom, CA00:00.0 57315  316 Data Driven Athlete Racing
4155.01Christopher ELBO   Oakland, CA00:00.0 287728  310 SquadraSF
5158.93Ryan WEI   Diamond Bar, CA00:00.0 328624  348 OTR Racing
6162.85Kenny LANE   Citrus Heights, CA00:00.0 274485  343 Team Bicycles Plus/Sierra Neva
7166.77Ben COTA   San Jose, CA00:00.0 7881  307 Leopard-Sapporo Team
8170.69Aaron PATTERSON   San Jose, CA00:00.0 334718  327 Leopard-Sapporo Team
9174.61Samuel BOLSTER   Camino, CA00:00.0 258704  340 Velo Reno P/B Tamarack Junctio
10178.53Robert LANDER   Sacramento, CA00:00.0 356530  318 Team City Sacramento
11182.45Oliver WEISS   Roseville, CA00:00.0 79603  337 Rio Strada Racing
12186.37Ryan OAKES   Chico, CA00:00.0 258824  323 Chico Corsa Cycling Club
13190.29Ronald JOHNSON   Sacramento, CA00:00.0 41718  317 Rio Strada
14194.21Erik CAMACHO   San Jose, CA00:00.0 303224  305 Leopard-Sapporo
15198.13Gabe MULTER   Santa Cruz, CA00:00.0 331142  342 Ritte Elite U23 Development Te
16202.05Yutch Liam COWHIE   Fair Oaks, CA00:00.0 261718  308 Team Bicycles Plus/Sierra Neva
17205.97Jason MARTEL DYE   Sacramento, CA00:00.0 310948  319 Davis Bike Club Race Team
18209.89John COLLINS   Folsom, CA00:00.0 231774  306 Folsom Bike/VW/Raley's
19213.81Ben PALMER   Folsom, CA00:00.0 328784  351 University of California-Davis
20217.73Kevin WILLITTS   S Lake Tahoe, CA00:00.0 192774  341 Team Bicycles Plus/Sierra Neva
21221.65Kalani HINES   San Francisco, CA00:00.0 219316  349 Metromint Cycling
22225.57Scott WATERS   Reno, NV00:00.0 298411  336 Velo Reno p/b Tamarack Junctio
23229.49Chris CAIN   Monterey, CA00:00.0 339008  304 Monterey Bay Racing Team
24233.41Ryan ODELL   Sacramento, CA00:00.0 288200  324 Davis Bike Club Race Team
25237.33Ryan MALM   Sacramento, CA00:00.0 296229  344 Davis Bike Club Race Team
26241.25Anthony RODRIGUEZ   Davis, CA00:00.0 276148  330 Davis Bike Club
27245.17Thomas THEISEN   Sacramento, CA00:00.0 229836  345 Big Ring Flyers
28249.09Curt MILLS   Gold River, CA00:00.0 299412  320 Data Driven Athlete Racing
29253.01Damian GONZALEZ   Stockton, CA00:00.0 178252  350 Michael David Winery Cycling T
30256.93Allen JACKSON   Sonora, CA00:00.0 260263  315 Kovarus/Wells Fargo Racing Tea
31260.85Henry RABAS   West Sacramento, CA00:00.0 28975  347 Team Bicycles Plus/Sierra Neva
32264.77Dennis BAKER   Sacramento, CA00:00.0 255279  352 Sacramento Golden Wheelmen
33268.69Ryan ALVEY   Sacramento, CA00:00.0 274522  301 Davis Bike Club Race Team
34272.61Casey FALLON   Sacramento, CA00:00.0 331532  311 Data Driven Athlete
35276.53Rocky FLETCHER   Sacramento , CA00:00.0 324460  346 Rio Strada Racing
36280.45Timothy ZSOKA   Folsom, CA00:00.0 239889  338 Team Bicycles Plus/Sierra Neva
37284.37Rich TABUSO   Roseville, CA00:00.0 274439  332 Team Bicycles Plus/Sierra Neva
38288.29Max FOORMAN   Folsom, CA00:00.0 152445  312 Team Bicycles Plus/Sierra Neva
39292.21Alex NEWCOMB   Sacramento, CA00:00.0 353226  322 Team City
40296.13Justin HALL   El Dorado Hills, CA00:00.0 81780  314 Team Bicycles Plus/Sierra Neva
41300.05Ken TODD   Folsom, CA00:00.0 174881  334 Team Bicycles Plus/Sierra Neva
42303.97Chris PAYNE   Reno, NV00:00.0 27493  328 Hub Coffee Roasters p/b Tahoe
43307.89Eric BRICKLER   Folsom, CA00:00.0 284883  303 Data Driven Athlete Racing
44311.81Steve OFFERMAN   Sacramento, CA00:00.0 81992  325 Team Bicycles Plus/Sierra Neva
45315.73Jeff MITCHELL   Folsom, CA00:00.0 101551  339 Team Bicycles Plus/Sierra Neva
46319.65Bob DELP   Folsom, CA00:00.0 9138  309 Folsom Bike/VW/Raley's
DNPNabil SAMAAN   Fair Oaks, CA00:00.0 177518  331 Sustainable Cycling
DNPTom THEISEN   Sacramento, CA00:00.0 229836  333 
DNPGordon OLSON   Reno, NV00:00.0 105151  326 Hub Coffee Roasters p/b TCR
DNPRobert NAPIERALSKI   Springville, CA00:00.0 271499  321 Sacramento Golden Wheelmen
DNPMark ROBERTSON   Oakland, CA00:00.0 237380  329 Cushman & Wakefield Racing
DNPWilson GORRELL   Folsom, CA00:00.0 254622  313 Folsom Bike/VW/Raley's
DNPDean ALLEGER   Sacramento, CA00:00.0 196784  300 Team Bicycles Plus/Sierra Neva

Men - Pro/Cat 1/2

 Place Points NameCity, StateTime USAC #BibTeam
183.19Willie MYERS (1 - Cat1)   Carmichael, CA00:00.0 306325  22 Fremont Bank Cycling Team
285.59Joshua CARLING (2 - Cat1)   Rancho Cordova, CA00:00.0 234584  Team Bicycles Plus/Sierra Neva
387.99Chris STASTNY (3 - Cat1)   Vacaville, CA00:00.0 249743  32 Hagens Berman
490.39Todd STONE (1 - Cat2)   Carmichael, CA00:00.0 249318  34 Team Bicycles Plus/Sierra Neva
592.79Matt CHATLAONG (4 - Cat1)   Roseville, CA00:00.0 304797  Folsom Bike/VW/Raleys
695.19John NOVIKOFF (2 - Cat2)   Rocklin, CA00:00.0 239990  53 Leadoutracing.com (CA)
797.59Matt MIKUL (3 - Cat2)   Sunnyvale, CA00:00.0 271933  21 Recycled Cycles Racing
899.99Robert SCHEFFLER (5 - Cat1)   Alamo, CA00:00.0 239048  62 Fremont Bank Cycling Team
9102.39Torey PHILIPP (6 - Cat1)   El Dorado Hills, CA00:00.0 263055  25 California Giant/Specialized
10104.79David ALBRECHT (7 - Cat1)   Chico, CA00:00.0 47091  Team Bicyces Plus/ZIPZ
11107.19Christopher BAKER (8 - Cat1)   Sacramento, CA00:00.0 47424  46 Morgan Stanley Cycling Team
12109.59Benjamin SWEDBERG (9 - Cat1)   Kent, WA00:00.0 200484  36 California Giant/Specialized
13111.99Brandon BORTH (10 - Cat1)   Lockeford, CA00:00.0 235761  Team Bicycles Plus/Sierra Neva
14114.39Mark DUROY (4 - Cat2)   Modesto, CA00:00.0 52805  52 Kind Human Sports
15116.79Christopher DUDLEY (11 - Cat1)   Reno, NV00:00.0 285988  57 TEAM CLIF BAR Cycling
16119.19Aj SNOVEL (5 - Cat2)   Sacramento, CA00:00.0 272559  29 Folsom Bike/VW/Raley's
17121.59Matthew VALENCIA (6 - Cat2)   Los Altos, CA00:00.0 255576  54 Team Specialized Racing Junior
18123.99Trevor GOMES (7 - Cat2)   Lodi, CA00:00.0 321964  15 Team Bicycles Plus/Sierra Neva
19126.39Jeromy COTTELL (8 - Cat2)   Redwood City, CA00:00.0 273912  Team Specialized Racing Master
20128.79Neil BARTLEY (9 - Cat2)   San Jose, CA00:00.0 209268  Team Bicycles Plus/ZIPZ
21131.19Jeff WATSON (10 - Cat2)   Elk Grove, CA00:00.0 293136  38 Team Bicycles Plus/Sierra Neva
22133.59Josh RENNIE (12 - Cat1)   Reno, NV00:00.0 251736  58 Red Peloton
23135.99Kenny STRICKLAND (11 - Cat2)   San Ramon, CA00:00.0 270965  35 Metromint
24138.39Michael JASINSKI (13 - Cat1)   Rocklin, CA00:00.0 269476  19 Team Clif Bar Cycling
25140.79David GRUNDMAN (14 - Cat1)   Davis, CA00:00.0 240540  16 Team Bicycles Plus/Sierra Neva
26143.19Scot Ferguson (12 - Cat2)   Reno, NV00:00.0 195008  50 TEAM CLIF BAR Cycling
27145.59Ben ALBRACHT (13 - Cat2)   Monterey, CA00:00.0 210637  Team Bicycles Plus/ZIPZ
28147.99Maxim Jenkins (1 - Pro)   Citrus Heights, CA00:00.0 195652  61 UCI Kenda 5 Hour
29150.39Kesler JARED (15 - Cat1)   Auburn, CA00:00.0 277317  56 Folsom Bike/VW/Raley's
30152.79Jeff DILLON (14 - Cat2)   Folsom, CA00:00.0 9524  11 LeadOut Racing
31155.19Joseph STARON (15 - Cat2)   Sacramento, CA00:00.0 132859  55 LangeTwins Winery p/b Great Ba
32157.59Nathanael CHRISTENSEN (16 - Cat1)   Clements, CA00:00.0 239919  Team Bicycles Plus/Sierra Neva
33159.99Brian ZIMNY (16 - Cat2)   Sacramento, CA00:00.0 61117  41 Folsom Bike/VW/Raley's
34162.39Michael PAINTER (17 - Cat2)   Chico Ca00:00.0 289184  24 Chico Corsa Cycling Club
35164.79Cody TAPLEY (18 - Cat2)   Citrus Heights, CA00:00.0 234610  37 Echelon Velo/ VuMedi p/b Lomba
36167.19Kerry STOCKWELL (17 - Cat1)   Folsom, CA00:00.0 34228  33 Team Bicycles Plus/Sierra Neve
37169.59Michael SAYERS (18 - Cat1)   Fair Oaks, CA00:00.0 54591  28 Specialized masters
38171.99Robert PASCO (19 - Cat1)   Belmont, CA00:00.0 136970  65 SAFEWAY/GA PRC Group/Bicycles
39174.39Brian CHOI (19 - Cat2)   Folsom, CA00:00.0 52849  Stuzio.com
40176.79Paul MORRIS (20 - Cat1)   Carson City, NV00:00.0 294725  49 TEAM CLIF BAR Cycling
41179.19Jan WEISSENBERGER (21 - Cat1)   San Francisco, CA00:00.0 186678  39 Team Bicycles Plus/ZIPZ
42181.59Jason BROWN (20 - Cat2)   Lodi, CA00:00.0 53115  42 LangeTwins Winery p/b Great Ba
43183.99Chris ESPY (21 - Cat2)   Sacramento, CA00:00.0 61649  44 Morgan Stanley /Specialized
44186.39Corey DUREN (22 - Cat2)   Chico, CA00:00.0 320490  47 Chico Corsa Cycling Club
45188.79Steve THOMSEN (23 - Cat2)   Reno, NV00:00.0 245436  60 LangeTwins Winery p/b Great Ba
46191.19Cody KAISER (22 - Cat1)   El Dorado Hills, CA00:00.0 202564  20 California Giant/Specialized
47193.59Russell WHITE (24 - Cat2)   Lafayette, CA00:00.0 236024  40 VuMedi p/b Lombardi Sports
48195.99Nick THEOBALD (23 - Cat1)   Burlingame, CA00:00.0 35297  64 SAFEWAY/GA PRC Group/Bicycles
49198.39Mark DETERLINE (25 - Cat2)   Salt Lake City, UT00:00.0 43613  10 Fremont Bank Cycling Team
50200.79Jason SNOVEL (26 - Cat2)   Sacramento, CA00:00.0 268577  30 Folsom Bike/VW/Raley's
51203.19Jonathan EROPKIN (24 - Cat1)   Fresno, CA00:00.0 197844  66 SAFEWAY/GA PRC Group/Bicycles
52205.59Lawrence NOLAN (25 - Cat1)   Fremont, CA00:00.0 26205  23 Team Specialized Racing Master
53207.99Daniel BRYANT (26 - Cat1)   Carmichael, CA00:00.0 195929  59 Folsom Bike/Mercedes Benz
54210.39Max POLIN (27 - Cat1)   Davis, CA00:00.0 228684  26 Sprintin' Kitten Coaching
55212.79Jason WALKER (27 - Cat2)   Reno, NV00:00.0 201369  43 Team Specialized Racing Master
56215.19Rodney SPRADLIN (28 - Cat2)   El Dorado Hills, CA00:00.0 122266  31 Team Bicycles Plus/Sierra Neva
57217.59Matt TUFTS (29 - Cat2)   Placerville, CA00:00.0 240212  51 Leadoutracing.com (CA)
58219.99Michael HERNANDEZ (28 - Cat1)   Oakland, CA00:00.0 136641  17 Leadoutracing.com
DNPJens HILLEN (Cat2)   Orinda, CA00:00.0 226525  18 Team Bicycles Plus/ZIPZ
DNPScott PEIFER (Cat2)   Granite Bay, CA00:00.0 265877  63 Folsom Bike/Mercedes Benz Elit
DNPVincent GEE (Cat2)   Sacramento, CA00:00.0 13001  14 Team Bicycles Plus/Sierra Neva
DNPKorina HUIZAR (Cat2)   Roseville, CA00:00.0 332152  45 Metromint Cycling
DNPAdam ROSS (Cat2)   Folsom, CA00:00.0 167796  27 Fremont Bank Cycling Team
DNPNicholas OLIVER (Cat2)   El Dorado Hills, CA00:00.0 271541  68 Fremont Bank Cycling Team
DNPDave KAUSE (Cat2)   Sacramento, CA00:00.0 175157  67 
DNPJeffrey GALLAND (Cat2)   Paradise, CA00:00.0 127804  12 Team Bicycles Plus/ZIPZ
DNPGregory GAMBETTA (Cat2)   Sacramento, CA00:00.0 212916  13 Folsom Bike/VW/Raley's
DNPScott MCKINLEY   Mill Valley, CA00:00.0 46815  48 

Men - Junior - 10-18

 Place Points NameCity, StateTime USAC #BibTeam
1302.44Robert TERRA   Lodi, CA00:00.0 269793  175 Team Bicycles Plus/Sierra Neva
2319.36Jonathan CHRISTENSEN   Clements, CA00:00.0 250315  182 Team Bicycles Plus/Sierra Neva
3336.28Samuel HILL   Woodland, CA00:00.0 318306  181 Davis Bike Club Race Team Juni
4353.20Connor ELLISON   Folsom, CA00:00.0 329264  170 Team Bicycles Plus/Sierra Neva
5370.12Jasper HODGSON   Folsom, CA00:00.0 337878  172 Team Bicycles Plus/Sierra Neva
6387.04Ryan JOY   Granite Bay, CA00:00.0 335440  176 Team Bicycles Plus/Sierra Neva
7403.96Matthew KEATING   Keyport, NJ00:00.0 76645  173 
8Won YOUNG MOON   00:00.0  177 
9437.80Michael HAHN   Folsom, CA00:00.0 338214  171 Team Bicycles Plus/Sierra Neva
10454.72Matthew KESSELRING   El Dorado Hills, CA00:00.0 393903  174 Cycling development
12488.56Lane STURGEON   Reno, NV00:00.0 377902  196 
21600.00Hans NIEMANN   Orinda, CA00:00.0 379284  192 
22600.00Connor NEARN   Fresno , CA00:00.0 389819  190 SBRacing
23600.00Chase NEARN   Clovis, CA00:00.0 389818  191 SBRacing
24600.00Henry CHADWICK   Sacramento, CA00:00.0 396051  194 
25600.00Colby TELL   Sacramento, CA00:00.0 396014  193 
26Owen NAWRATH   00:00.0  195 
27Cealia CROWLEY   00:00.0  178 
DNPKyle FIORI   Folsom, CA00:00.0 303705  180 Davis Bike Club Jr Race Team

Women - Cat1/2/3

 Place Points NameCity, StateTime USAC #BibTeam
1122.83Amy CHANDOS (1 - Cat2)   Flagstaff, AZ00:00.0 256409  124 Stevens Bikes p/b Pactimo
2129.73Marley SMITH   Roseville, CA00:00.0 276961  114 Folsom Bike/Cervello
3136.63Sunshine TOWNSEND (2 - Cat2)   Davis, CA00:00.0 327398  117 Folsom bike/Cervelo
4143.53Marissa AXELL   El Cerrito, CA00:00.0 269569  100 Team Fremont Bank
5150.43Jennie PHILLIPS (3 - Cat2)   Danville, CA00:00.0 203722  110 Kovarus / Wells Fargo Racing T
6157.33Korina HUIZAR (4 - Cat2)   Roseville, CA00:00.0 332152  104 Metromint Cycling
7164.23Erica GREIF (5 - Cat2)   Reno, NV00:00.0 367331  103 UNR
8171.13Colene CROWLEY (1 - Cat3)   Carmichael, CA00:00.0 129693  120 Rio Strada Racing
9178.03Page ROBERTSON   Oakland, CA00:00.0 291028  111 Team TIBCO II
10184.93Katie STONEBRAKER (2 - Cat3)   Sacramento, CA00:00.0 226927  116 Rio Strada Racing
11191.83Heidi LITTENBERG (6 - Cat2)   Reno, NV00:00.0 286191  107 Rio Strada Racing
12198.73Brooke Roberts (3 - Cat3)   Richmond, CA00:00.0 220185  101 Metromint Cycling
13205.63Heather ROSS   Felton, CA00:00.0 239612  112 Fremont Bank Cycling Team
14212.53Cristina HUGHES   Zephyr Cove, NV00:00.0 325664  125 
15219.43Nicole SLATON (4 - Cat3)   Davis, CA00:00.0 287914  121 Metromint Cycling
16226.33Josie MORGAN (7 - Cat2)   Oakland, CA00:00.0 242553  109 Fremont Bank Cycling Team
17233.23Aliya TRAFICANTE (5 - Cat3)   Chico, CA00:00.0 310825  118 Chico Corsa
18240.13Vanessa CAIRNS (6 - Cat3)   San Jose, CA00:00.0 282467  102 Team TIBCO II
19247.03Karen HUTCHINS (7 - Cat3)   Folsom, CA00:00.0 308852  105 Leadoutracing.com
20253.93Carola BERGER (8 - Cat2)   Redwood City, CA00:00.0 184962  119 
21260.83Kira PROKOPAKIS (9 - Cat2)   Santa Clara, CA00:00.0 283149  123 Los Gatos
22267.73Claire MORGAN (10 - Cat2)   Gold River, CA00:00.0 335402  108 Folsom Bike/Cervelo
23274.63Asa SALAS (8 - Cat3)   Folsom, CA00:00.0 115370  113 LeadoutRacing.com
24281.53Holly ROBERTS (11 - Cat2)   Sunnyvale, CA00:00.0 203177  122 SJBC
DNPDanielle SPIRES (Cat2)   Oakland, CA00:00.0 303311  115 Pacific Crush
DNPSherri LEHMAN (Cat3)   Gold River, CA00:00.0 274098  106 Rio Strada Racing

Women - Cat 4

 Place Points NameCity, StateTime USAC #BibTeam
1420.48Madeline FINCH   Sacramento, CA00:00.0 127715  479 Rio Strada Racing
2434.61Joanne Liu   Granite Bay00:00.0 393189  483 Leopard-Sapporo Team
3448.74Gale DE ROSA   Gold River, CA00:00.0 332412  477 Metromint Cycling
4462.87Remy HITT   Emeryville, CA00:00.0 393503  481 
5477.00Sara HEUSTON   Carmichael, CA00:00.0 391988  489 Rio Strada Racing
6491.13Jamie WHITMORE   Mount Aukum, CA00:00.0 169611  487 
7505.26Lisa TRUJILLO   Reno Nv00:00.0 381697  486 Hub Coffee Roasters p/b Tahoe
8519.39Heather DUFFY   Sacramento, CA00:00.0 393169  478 Delta Velo
9533.52Rexanne HUGHES   Sacramento, CA00:00.0 365247  482 Rio Strada Racing
10547.65Jennifer BAKER   Sacramento, CA00:00.0 337670  476 Rio Strada Racing
11561.78Karen MUNOZ   Cameronpark, CA00:00.0 315886  484 Team Revolutions
12575.91Angie PLATIS   West Sacramento, CA00:00.0 364812  485 Rio Strada Racing
13Celina ORNELAS   00:00.0  488 
DNPStephanie HINES   Berkeley, CA00:00.0 331318  480 Metromint

Report missing or incorrect license numbers

Volkswagen
Sierra NevadaSpyBonk BreakerCUOREShimanoUSACDF
UCI USA Cycling is the official governing body for all disciplines of competitive cycling in the United States. The 501c3, membership-based organization aims both to achieve sustained success in international cycling competition and to grow competitive cycling in America while delivering an exceptional customer experience.
View Children's Online Privacy Protection Policy
US Olympic Committee